tititudorancea.com
Station Historical Data
Daily Summary for November 23, 2018 Units:  Metric    English   Both
« Previous Day
Next Day »
Daily Weekly Monthly Yearly Custom
  High: Low: Average:
Temperature: -17.8 °C 7.7 °C 9.9 °C
Dew Point: -17.8 °C 4.8 °C 7 °C
Humidity: Humidity % 69 % 82 %
Wind Speed: 0 km/h 13 km/h 28 km/h
Wind Gust: 0 km/h - -
Wind:- - WSW
Pressure: 0 hPa 1006 hPa -
Precipitation: 0 mm    
Historical Graphs
 
 
Ararat weather Find more about Weather in Ararat, AU


 



 


Tabular Data for November 23, 2018
Time Temperature Dew Point Pressure Wind Wind Speed Wind Gust Humidity Rainfall Rate (Hourly)
-17.8 °C -17.8 °C 0 hPa Calm     Humidity % 0 mm
00:04 8.8 °C 6.7 °C 1006 hPa SSW 31.5 km/h 19.5 km/h 87 % 0 mm
00:09 8.7 °C 6.7 °C 1006 hPa SSW 31.5 km/h 18.2 km/h 87 % 0 mm
00:14 8.7 °C 6.7 °C 1006 hPa SW 20.4 km/h 11.3 km/h 87 % 0 mm
00:19 8.7 °C 6.7 °C 1006 hPa SSW 24.1 km/h 22.4 km/h 87 % 0 mm
00:24 8.7 °C 6.5 °C 1006.3 hPa SW 25.7 km/h 10.8 km/h 86 % 0 mm
00:29 8.7 °C 6.5 °C 1006.3 hPa SW 29.6 km/h 17.9 km/h 86 % 0 mm
00:34 8.7 °C 6.4 °C 1006.3 hPa SW 16.7 km/h 10.1 km/h 86 % 0 mm
00:39 8.7 °C 6.4 °C 1006 hPa SSW 24.1 km/h 13 km/h 86 % 0 mm
00:44 8.7 °C 6.4 °C 1006 hPa SW 13 km/h 12.9 km/h 86 % 0 mm
00:49 8.6 °C 6.4 °C 1006 hPa SW 18.5 km/h 12.7 km/h 86 % 0 mm
00:54 8.6 °C 6.2 °C 1006 hPa SW 25.9 km/h 16.4 km/h 85 % 0 mm
00:59 8.6 °C 6.3 °C 1006 hPa SW 18.5 km/h 14.2 km/h 86 % 0 mm
01:04 8.6 °C 6.2 °C 1006 hPa SW 24.1 km/h 13.8 km/h 85 % 0 mm
01:09 8.6 °C 6.2 °C 1006 hPa SSW 29.6 km/h 22.2 km/h 85 % 0 mm
01:14 8.6 °C 6.2 °C 1006 hPa SSW 31.5 km/h 16.9 km/h 85 % 0 mm
01:19 8.6 °C 6.2 °C 1006 hPa SW 24.1 km/h 14.6 km/h 85 % 0 mm
01:24 8.6 °C 6.2 °C 1006 hPa SW 22.2 km/h 12.2 km/h 85 % 0 mm
01:29 8.6 °C 6.2 °C 1006 hPa SW 22.2 km/h 12.2 km/h 85 % 0 mm
01:34 8.5 °C 6.3 °C 1006 hPa SW 20.4 km/h 20.8 km/h 86 % 0 mm
01:39 8.5 °C 6.4 °C 1006.3 hPa SW 31.5 km/h 20.1 km/h 87 % 0 mm
01:44 8.6 °C 6.5 °C 1006.3 hPa SW 18.5 km/h 11.7 km/h 87 % 0 mm
01:49 8.6 °C 6.6 °C 1006.3 hPa SW 25.9 km/h 13 km/h 87 % 0 mm
01:54 8.6 °C 6.6 °C 1006 hPa SW 25.9 km/h 16.6 km/h 87 % 0 mm
01:59 8.6 °C 6.7 °C 1006.3 hPa SW 20.4 km/h 15.6 km/h 88 % 0 mm
02:04 8.6 °C 6.6 °C 1006.3 hPa SW 25.9 km/h 18.5 km/h 87 % 0 mm
02:09 8.6 °C 6.6 °C 1006.3 hPa SW 25.7 km/h 11.6 km/h 87 % 0 mm
02:14 8.6 °C 6.6 °C 1006.3 hPa SW 24.1 km/h 12.4 km/h 87 % 0 mm
02:19 8.6 °C 6.6 °C 1006 hPa WSW 22.5 km/h 14.5 km/h 87 % 0 mm
02:24 8.6 °C 6.5 °C 1006 hPa SW 14.8 km/h 10.9 km/h 87 % 0 mm
02:29 8.5 °C 6.6 °C 1006 hPa SW 18.5 km/h 19 km/h 88 % 0 mm
02:34 8.6 °C 6.7 °C 1006 hPa SW 22.2 km/h 16.3 km/h 88 % 0 mm
02:39 8.7 °C 6.8 °C 1006 hPa SW 29.6 km/h 12.2 km/h 88 % 0 mm
02:44 8.6 °C 6.7 °C 1006 hPa North 18.5 km/h 10.8 km/h 88 % 0 mm
02:49 8.6 °C 6.7 °C 1006 hPa North 25.7 km/h 20.1 km/h 88 % 0 mm
02:54 8.7 °C 6.8 °C 1006.3 hPa SW 31.5 km/h 11.1 km/h 88 % 0 mm
02:59 8.6 °C 6.7 °C 1006 hPa SW 25.9 km/h 15 km/h 88 % 0 mm
03:04 8.6 °C 6.7 °C 1006 hPa SSW 18.5 km/h 12.9 km/h 88 % 0 mm
03:09 8.4 °C 6.6 °C 1006 hPa SSW 24.1 km/h 15.3 km/h 88 % 0 mm
03:14 8.4 °C 6.5 °C 1006.3 hPa SW 20.4 km/h 12.1 km/h 88 % 0 mm
03:19 8.3 °C 6.6 °C 1006 hPa SW 18.5 km/h 17.7 km/h 89 % 0 mm
03:24 8.3 °C 6.6 °C 1006.3 hPa WSW 37 km/h 19 km/h 89 % 0 mm
03:29 8.3 °C 6.6 °C 1006.3 hPa SW 29.6 km/h 21.2 km/h 89 % 0 mm
03:34 8.3 °C 6.6 °C 1006.3 hPa WSW 25.9 km/h 18.5 km/h 89 % 0 mm
03:39 8.3 °C 6.6 °C 1006 hPa North 31.5 km/h 14.5 km/h 89 % 0 mm
03:44 8.4 °C 6.7 °C 1006 hPa SSW 22.5 km/h 16.9 km/h 89 % 0 mm
03:49 8.4 °C 6.7 °C 1006 hPa SW 22.2 km/h 18.8 km/h 89 % 0 mm
03:54 8.4 °C 6.7 °C 1006 hPa SW 18.5 km/h 20.6 km/h 89 % 0 mm
03:59 8.4 °C 6.6 °C 1006.3 hPa SW 27.8 km/h 19.6 km/h 88 % 0 mm
04:04 8.4 °C 6.6 °C 1006 hPa SSW 25.9 km/h 14.8 km/h 88 % 0 mm
04:09 8.4 °C 6.4 °C 1006.3 hPa SW 20.4 km/h 14.5 km/h 87 % 0 mm
04:14 8.4 °C 6.4 °C 1006 hPa SW 29.6 km/h 16.4 km/h 87 % 0 mm
04:19 8.4 °C 6.6 °C 1006 hPa WSW 25.9 km/h 22.4 km/h 88 % 0 mm
04:24 8.4 °C 6.5 °C 1006 hPa WSW 24.1 km/h 18.5 km/h 88 % 0 mm
04:29 8.4 °C 6.5 °C 1006 hPa SW 20.4 km/h 13.7 km/h 88 % 0 mm
04:34 8.4 °C 6.7 °C 1006.3 hPa SW 30.6 km/h 16.4 km/h 89 % 0 mm
04:39 8.4 °C 6.7 °C 1006 hPa SSW 22.2 km/h 16.1 km/h 89 % 0 mm
04:44 8.4 °C 6.6 °C 1006 hPa WSW 33.3 km/h 23.2 km/h 88 % 0 mm
04:49 8.6 °C 6.7 °C 1006 hPa SW 25.9 km/h 24.6 km/h 88 % 0 mm
04:54 8.6 °C 6.7 °C 1006 hPa SW 29.6 km/h 18.7 km/h 88 % 0 mm
04:59 8.7 °C 6.8 °C 1006 hPa SSW 31.5 km/h 19.5 km/h 88 % 0 mm
05:04 8.7 °C 6.6 °C 1006 hPa SW 31.5 km/h 20.1 km/h 87 % 0 mm
05:09 8.6 °C 6.6 °C 1006 hPa SW 29.6 km/h 22.2 km/h 87 % 0 mm
05:14 8.6 °C 6.6 °C 1006 hPa SW 27.4 km/h 17.1 km/h 87 % 0 mm
05:19 8.6 °C 6.7 °C 1006 hPa SW 27.8 km/h 14 km/h 88 % 0 mm
05:24 8.6 °C 6.7 °C 1006 hPa SW 37 km/h 18.2 km/h 88 % 0 mm
05:29 8.5 °C 6.6 °C 1006.3 hPa SW 25.9 km/h 17.1 km/h 88 % 0 mm
05:34 8.5 °C 6.4 °C 1006 hPa SW 20.4 km/h 11.9 km/h 87 % 0 mm
05:39 8.4 °C 6.4 °C 1006.3 hPa SW 22.5 km/h 16.1 km/h 87 % 0 mm
05:44 8.3 °C 6.2 °C 1006.3 hPa SW 18.5 km/h 12.6 km/h 87 % 0 mm
05:49 8.1 °C 6.1 °C 1006.3 hPa North 29.6 km/h 12.1 km/h 87 % 0 mm
05:54 7.9 °C 6.1 °C 1006.3 hPa SW 20.4 km/h 16.7 km/h 88 % 0 mm
05:59 7.8 °C 5.8 °C 1006.7 hPa SW 20.9 km/h 12.6 km/h 87 % 0 mm
06:04 7.8 °C 5.7 °C 1006.7 hPa SW 25.9 km/h 16.9 km/h 87 % 0 mm
06:09 7.7 °C 5.7 °C 1006.7 hPa WSW 25.9 km/h 15 km/h 87 % 0 mm
06:14 7.7 °C 5.5 °C 1006.7 hPa SW 20.4 km/h 12.4 km/h 86 % 0 mm
06:19 7.7 °C 5.3 °C 1006.7 hPa SW 24.1 km/h 15.3 km/h 85 % 0 mm
06:24 7.9 °C 5 °C 1006.7 hPa WSW 31.5 km/h 16.6 km/h 82 % 0 mm
06:29 8 °C 5.1 °C 1006.7 hPa WSW 22.5 km/h 13 km/h 82 % 0 mm
06:34 8 °C 5.1 °C 1007 hPa SSW 24.1 km/h 14.3 km/h 82 % 0 mm
06:39 8.1 °C 5.2 °C 1006.7 hPa SW 27.8 km/h 17.4 km/h 82 % 0 mm
06:44 8.2 °C 5.3 °C 1007 hPa SW 16.7 km/h 12.2 km/h 82 % 0 mm
06:49 8.2 °C 5.3 °C 1007 hPa SSW 27.8 km/h 20.3 km/h 82 % 0 mm
06:54 8.2 °C 5.3 °C 1007 hPa SW 24.1 km/h 22 km/h 82 % 0 mm
06:59 8.3 °C 5.3 °C 1007.3 hPa SW 20.4 km/h 15.1 km/h 81 % 0 mm
07:04 8.3 °C 5.4 °C 1007.3 hPa WSW 16.7 km/h 13.7 km/h 82 % 0 mm
07:09 8.3 °C 5.4 °C 1007.3 hPa SW 25.9 km/h 14.3 km/h 82 % 0 mm
07:14 8.4 °C 5.5 °C 1007 hPa SW 24.1 km/h 13.4 km/h 82 % 0 mm
07:19 8.4 °C 5.7 °C 1007 hPa WSW 24.1 km/h 12.2 km/h 83 % 0 mm
07:24 8.4 °C 5.7 °C 1007 hPa SW 27.8 km/h 17.5 km/h 83 % 0 mm
07:29 8.5 °C 5.8 °C 1007 hPa WSW 25.9 km/h 24 km/h 83 % 0 mm
07:34 8.6 °C 5.8 °C 1007 hPa SW 24.1 km/h 16.3 km/h 83 % 0 mm
07:39 8.6 °C 5.9 °C 1007 hPa North 19.3 km/h 20.1 km/h 83 % 0 mm
07:44 8.8 °C 5.7 °C 1007 hPa WSW 24.1 km/h 15.4 km/h 81 % 0 mm
07:49 9 °C 5.6 °C 1007 hPa WSW 20.4 km/h 16.7 km/h 79 % 0 mm
07:54 9.1 °C 5.3 °C 1007 hPa SSW 31.5 km/h 24.9 km/h 77 % 0 mm
07:59 9.3 °C 4.9 °C 1007 hPa SSW 33.3 km/h 24.3 km/h 74 % 0 mm
08:04 9.4 °C 5 °C 1007.3 hPa WSW 35.4 km/h 21.6 km/h 74 % 0 mm
08:09 9.4 °C 4.8 °C 1007.3 hPa SW 18.5 km/h 19.6 km/h 73 % 0 mm
08:14 9.4 °C 5 °C 1007.3 hPa SSW 27.8 km/h 20.1 km/h 74 % 0 mm
08:19 9.3 °C 5.1 °C 1007.3 hPa WSW 31.5 km/h 21.7 km/h 75 % 0 mm
08:24 9.3 °C 5.3 °C 1007.3 hPa SW 31.5 km/h 10.6 km/h 76 % 0 mm
08:29 9.4 °C 5.4 °C 1007.3 hPa WSW 29 km/h 21.9 km/h 76 % 0 mm
08:34 9.6 °C 5.3 °C 1007.3 hPa North 25.7 km/h 18.8 km/h 75 % 0 mm
08:39 9.6 °C 5 °C 1007.3 hPa SSW 31.5 km/h 19.3 km/h 73 % 0 mm
08:44 9.8 °C 5.4 °C 1007.3 hPa SW 27.8 km/h 27.8 km/h 74 % 0 mm
08:49 9.9 °C 5.4 °C 1007.3 hPa SW 25.9 km/h 13.2 km/h 74 % 0 mm
08:54 9.9 °C 5.4 °C 1007.7 hPa SSW 42.6 km/h 21.2 km/h 74 % 0 mm
08:59 9.9 °C 5.4 °C 1007.7 hPa SSW 31.5 km/h 23.7 km/h 74 % 0 mm
09:04 10.1 °C 5.6 °C 1007.7 hPa SW 31.5 km/h 17.9 km/h 74 % 0 mm
09:09 10.2 °C 5.7 °C 1007.7 hPa WSW 30.6 km/h 18.8 km/h 74 % 0 mm
09:14 10.1 °C 5.7 °C 1007.7 hPa SW 38.9 km/h 26.4 km/h 74 % 0 mm
09:19 10.1 °C 5.9 °C 1008 hPa SW 33.3 km/h 20 km/h 75 % 0 mm
09:24 10 °C 5.6 °C 1008 hPa SW 33.3 km/h 22.5 km/h 74 % 0 mm
09:29 10 °C 5.8 °C 1008.4 hPa SSW 32.2 km/h 23.2 km/h 75 % 0 mm
09:34 10 °C 5.6 °C 1008 hPa SSW 37 km/h 19.3 km/h 74 % 0 mm
09:39 10 °C 5.6 °C 1008.4 hPa SSW 31.5 km/h 14.8 km/h 74 % 0 mm
09:44 10.3 °C 6.1 °C 1008.4 hPa SSW 22.2 km/h 17.1 km/h 75 % 0 mm
09:49 10.5 °C 6.3 °C 1008.4 hPa SW 22.2 km/h 20.6 km/h 75 % 0 mm
09:54 10.3 °C 5.9 °C 1008.4 hPa SSW 24.1 km/h 13.4 km/h 74 % 0 mm
09:59 10.2 °C 5.8 °C 1008.4 hPa SW 44.4 km/h 27.4 km/h 74 % 0 mm
10:04 10.3 °C 5.8 °C 1008.4 hPa North 29 km/h 20 km/h 74 % 0 mm
10:09 10.4 °C 5.8 °C 1008.4 hPa SW 35.2 km/h 28.2 km/h 73 % 0 mm
10:14 10.1 °C 5.7 °C 1008.7 hPa North 35.2 km/h 21.2 km/h 74 % 0 mm
10:19 9.9 °C 5.8 °C 1008.7 hPa SW 31.5 km/h 20.9 km/h 76 % 0 mm
10:24 9.7 °C 6.1 °C 1008.7 hPa North 27.4 km/h 21.1 km/h 78 % 0 mm
10:29 9.7 °C 6.2 °C 1008.7 hPa SSW 31.5 km/h 14.5 km/h 79 % 0 mm
10:34 9.6 °C 6.2 °C 1008.7 hPa SSW 33.3 km/h 18.5 km/h 79 % 0 mm
10:39 9.7 °C 6.2 °C 1008.7 hPa SSW 24.1 km/h 15.3 km/h 79 % 0 mm
10:44 9.7 °C 6 °C 1008.7 hPa North 33.3 km/h 25.6 km/h 78 % 0 mm
10:49 10 °C 6.5 °C 1008.7 hPa SSW 24.1 km/h 14.8 km/h 79 % 0 mm
10:54 10.6 °C 6.7 °C 1008.7 hPa SSW 29.6 km/h 17.5 km/h 77 % 0 mm
10:59 10.8 °C 6.8 °C 1008.7 hPa SSW 33.8 km/h 20 km/h 76 % 0 mm
11:04 10.8 °C 6.6 °C 1008.7 hPa SW 29.6 km/h 26.1 km/h 75 % 0 mm
11:09 10.9 °C 6.9 °C 1008.7 hPa North 27.8 km/h 14.3 km/h 76 % 0 mm
11:14 10.8 °C 6.7 °C 1008.7 hPa SW 37 km/h 22.2 km/h 76 % 0 mm
11:19 10.3 °C 6.7 °C 1008.7 hPa SW 29.6 km/h 13.5 km/h 78 % 0 mm
11:24 10.6 °C 7.1 °C 1008.7 hPa SW 16.7 km/h 16.6 km/h 79 % 0 mm
11:29 10.6 °C 6.7 °C 1008.7 hPa SW 29.6 km/h 17.4 km/h 77 % 0 mm
11:34 10.9 °C 6.7 °C 1008.7 hPa SSW 31.5 km/h 13.7 km/h 75 % 0 mm
11:39 11.1 °C 6.7 °C 1008.7 hPa SW 31.5 km/h 23.5 km/h 74 % 0 mm
11:44 11.1 °C 6.7 °C 1008.7 hPa North 29.6 km/h 18.3 km/h 74 % 0 mm
11:49 11.1 °C 6.7 °C 1008.7 hPa South 31.5 km/h 23.5 km/h 74 % 0 mm
11:54 11.1 °C 6.7 °C 1008.7 hPa SW 31.5 km/h 24.6 km/h 74 % 0 mm
11:59 11.6 °C 6.9 °C 1008.4 hPa SW 35.2 km/h 18.5 km/h 73 % 0 mm
12:04 11.6 °C 6.5 °C 1008.4 hPa South 38.9 km/h 17.5 km/h 71 % 0 mm
12:09 11.9 °C 6.6 °C 1008.4 hPa SSW 33.3 km/h 15.1 km/h 70 % 0 mm
12:14 11.9 °C 6.6 °C 1008.4 hPa WSW 33.3 km/h 15.6 km/h 70 % 0 mm
12:19 11.9 °C 6.4 °C 1008.7 hPa SSW 33.3 km/h 27.5 km/h 69 % 0 mm
12:24 12 °C 6.9 °C 1008.4 hPa SSW 31.5 km/h 18 km/h 71 % 0 mm
12:29 11.9 °C 6.4 °C 1008.4 hPa SSW 42.6 km/h 27.5 km/h 69 % 0 mm
12:34 11.8 °C 6.5 °C 1008.4 hPa SW 31.5 km/h 18.5 km/h 70 % 0 mm
12:39 11.8 °C 6.6 °C 1008.4 hPa SW 31.5 km/h 15 km/h 70 % 0 mm
12:44 12.1 °C 6.6 °C 1008.4 hPa SSW 40.7 km/h 19.3 km/h 69 % 0 mm
12:49 12.1 °C 6.6 °C 1008.4 hPa SSW 29.6 km/h 19.8 km/h 69 % 0 mm
12:54 11.9 °C 6.6 °C 1008.4 hPa WSW 24.1 km/h 20.8 km/h 70 % 0 mm
12:59 11.4 °C 6.6 °C 1008.7 hPa SW 29 km/h 18.7 km/h 72 % 0 mm
13:04 11.2 °C 6.8 °C 1008.7 hPa SW 22.5 km/h 15.3 km/h 74 % 0 mm
13:09 11.2 °C 6.8 °C 1008.4 hPa SW 31.5 km/h 22.5 km/h 74 % 0 mm
13:14 11.4 °C 6.9 °C 1008.4 hPa SW 31.5 km/h 16.4 km/h 74 % 0 mm
13:19 11.6 °C 7.1 °C 1008.4 hPa SSW 20.4 km/h 23.3 km/h 74 % 0 mm
13:24 11.1 °C 7.1 °C 1008.4 hPa North 35.2 km/h 17.1 km/h 76 % 0 mm
13:29 10.9 °C 7.3 °C 1008.7 hPa SSW 27.8 km/h 14.8 km/h 78 % 0 mm
13:34 10.9 °C 7.3 °C 1008.7 hPa SW 33.8 km/h 24.3 km/h 78 % 0 mm
13:39 10.7 °C 7.2 °C 1008.7 hPa WSW 37 km/h 20.1 km/h 79 % 0 mm
13:44 10.7 °C 7.4 °C 1008.4 hPa SSW 27.8 km/h 16.7 km/h 80 % 0 mm
13:49 10.9 °C 7.4 °C 1008.4 hPa SW 24.1 km/h 16.1 km/h 79 % 0 mm
13:54 11.2 °C 7.4 °C 1008.4 hPa SSW 31.5 km/h 15.6 km/h 78 % 0 mm
13:59 11.5 °C 7.6 °C 1008.4 hPa SW 29.6 km/h 13.8 km/h 77 % 0 mm
14:04 11.8 °C 7.5 °C 1008.4 hPa SSW 40.7 km/h 17.4 km/h 75 % 0 mm
14:09 11.6 °C 7.3 °C 1008.4 hPa North 31.5 km/h 24 km/h 75 % 0 mm
14:14 11.2 °C 7.7 °C 1008.4 hPa SSW 25.9 km/h 16.6 km/h 79 % 0 mm
14:19 11.2 °C 8 °C 1008.4 hPa North 25.9 km/h 24.3 km/h 81 % 0 mm
14:24 11.3 °C 7.9 °C 1008.4 hPa North 27.4 km/h 16.1 km/h 80 % 0 mm
14:29 11.1 °C 7.7 °C 1008.7 hPa SW 32.2 km/h 20.1 km/h 80 % 0 mm
14:34 11 °C 7.9 °C 1008.7 hPa North 46.3 km/h 26.6 km/h 81 % 0 mm
14:39 10.7 °C 8.2 °C 1008.7 hPa SW 31.5 km/h 15.4 km/h 85 % 0 mm
14:44 11.2 °C 8.7 °C 1008.4 hPa SW 18.5 km/h 13.7 km/h 85 % 0 mm
14:49 11.2 °C 8.3 °C 1008.4 hPa SSW 33.3 km/h 21.2 km/h 82 % 0 mm
14:54 10.8 °C 8.2 °C 1008.4 hPa SW 31.5 km/h 22.4 km/h 84 % 0 mm
14:59 10.9 °C 8.3 °C 1008.4 hPa SSW 31.5 km/h 16.9 km/h 84 % 0 mm
15:04 11.6 °C 8.7 °C 1008.4 hPa North 25.7 km/h 18.3 km/h 82 % 0 mm
15:09 11.7 °C 8.4 °C 1008.4 hPa WSW 29.6 km/h 19.6 km/h 80 % 0 mm
15:14 11.9 °C 8.2 °C 1008.4 hPa SSW 31.5 km/h 20.1 km/h 78 % 0 mm
15:19 12.5 °C 8.4 °C 1008.4 hPa WSW 31.5 km/h 25.6 km/h 76 % 0 mm
15:24 12.7 °C 8.4 °C 1008.4 hPa SW 29 km/h 16.3 km/h 75 % 0 mm
15:29 12.7 °C 8.4 °C 1008.4 hPa SW 31.5 km/h 15.1 km/h 75 % 0 mm
15:34 12.5 °C 8 °C 1008.4 hPa SSW 25.9 km/h 14.3 km/h 74 % 0 mm
15:39 12.3 °C 8 °C 1008.4 hPa SSW 18.5 km/h 19.3 km/h 75 % 0 mm
15:44 12.2 °C 7.9 °C 1008.4 hPa SW 18.5 km/h 14.2 km/h 75 % 0 mm
15:49 12.3 °C 7.9 °C 1008.4 hPa SW 40.7 km/h 19.8 km/h 75 % 0 mm
15:54 12.2 °C 7.9 °C 1008.4 hPa SW 31.5 km/h 20.4 km/h 75 % 0 mm
15:59 12.4 °C 8.3 °C 1008.4 hPa SW 18.5 km/h 18.5 km/h 76 % 0 mm
16:04 12.8 °C 8.1 °C 1008.4 hPa SW 24.1 km/h 20.4 km/h 73 % 0 mm
16:09 12.8 °C 7.8 °C 1008.4 hPa SW 37 km/h 24.6 km/h 72 % 0 mm
16:14 12.4 °C 7.9 °C 1008.4 hPa SW 38.9 km/h 20.4 km/h 74 % 0 mm
16:19 12.3 °C 7.9 °C 1008.4 hPa SSW 42.6 km/h 19.6 km/h 75 % 0 mm
16:24 12.2 °C 8.1 °C 1008.4 hPa SW 33.3 km/h 25.6 km/h 76 % 0 mm
16:29 12.2 °C 7.9 °C 1008.4 hPa North 40.7 km/h 22.4 km/h 75 % 0 mm
16:34 12.4 °C 7.9 °C 1008.4 hPa South 37 km/h 30.9 km/h 74 % 0 mm
16:39 12.3 °C 7.8 °C 1008.4 hPa SSW 40.7 km/h 18.8 km/h 74 % 0 mm
16:44 12.2 °C 7.9 °C 1008.4 hPa SW 46.3 km/h 25.6 km/h 75 % 0 mm
16:49 11.9 °C 7.8 °C 1008.4 hPa SSW 27.8 km/h 14 km/h 76 % 0 mm
16:54 11.9 °C 8.2 °C 1008.4 hPa SW 31.5 km/h 13.8 km/h 78 % 0 mm
16:59 11.9 °C 8.2 °C 1008.4 hPa SW 31.5 km/h 16.7 km/h 78 % 0 mm
17:04 11.9 °C 8.1 °C 1008.4 hPa SW 40.7 km/h 34.8 km/h 77 % 0 mm
17:09 11.9 °C 8.2 °C 1008.4 hPa SSW 31.5 km/h 18.2 km/h 78 % 0 mm
17:14 12.1 °C 8.2 °C 1008.4 hPa SSW 33.3 km/h 21.9 km/h 77 % 0 mm
17:19 12.1 °C 8.3 °C 1008 hPa SSW 27.8 km/h 17.9 km/h 78 % 0 mm
17:24 12.1 °C 8.2 °C 1008.4 hPa North 37 km/h 23.5 km/h 77 % 0 mm
17:29 11.9 °C 8.2 °C 1008.4 hPa SW 42.6 km/h 20 km/h 78 % 0 mm
17:34 11.7 °C 7.8 °C 1008.4 hPa SW 42.6 km/h 27 km/h 77 % 0 mm
17:39 11.7 °C 7.9 °C 1008.4 hPa North 35.2 km/h 27.2 km/h 78 % 0 mm
17:44 11.5 °C 8 °C 1008.4 hPa SSW 35.4 km/h 26.4 km/h 79 % 0 mm
17:49 11.4 °C 8.3 °C 1008.4 hPa WSW 37 km/h 19 km/h 81 % 0 mm
17:54 11.2 °C 8.6 °C 1008.4 hPa North 27.8 km/h 21.2 km/h 84 % 0 mm
17:59 11.1 °C 8.7 °C 1008.7 hPa SSW 31.5 km/h 20.3 km/h 85 % 0 mm
18:04 11 °C 8.7 °C 1008.4 hPa SW 31.5 km/h 22.2 km/h 86 % 0 mm
18:09 10.8 °C 8.6 °C 1008.7 hPa SW 29.6 km/h 17.7 km/h 86 % 0 mm
18:14 10.7 °C 8.7 °C 1008.7 hPa SW 31.5 km/h 20.3 km/h 87 % 0 mm
18:19 10.7 °C 8.8 °C 1008.7 hPa North 25.7 km/h 17.7 km/h 88 % 0 mm
18:24 10.8 °C 8.9 °C 1008.7 hPa SSW 29.6 km/h 17.9 km/h 88 % 0 mm
18:29 10.8 °C 8.8 °C 1008.7 hPa SW 22.2 km/h 19.6 km/h 87 % 0 mm
18:34 10.8 °C 8.4 °C 1008.7 hPa SW 29.6 km/h 23.5 km/h 85 % 0 mm
18:39 10.9 °C 8.4 °C 1009 hPa North 31.5 km/h 15.9 km/h 85 % 0 mm
18:44 10.9 °C 8.4 °C 1009 hPa SW 25.7 km/h 18 km/h 85 % 0 mm
18:49 10.8 °C 8.4 °C 1009 hPa SSW 24.1 km/h 20.3 km/h 85 % 0 mm
18:54 10.8 °C 8.4 °C 1009 hPa SW 25.7 km/h 23.8 km/h 85 % 0 mm
18:59 10.9 °C 8.4 °C 1009.4 hPa SW 29.6 km/h 20.6 km/h 85 % 0 mm
19:04 10.8 °C 8.2 °C 1009.4 hPa SW 44.4 km/h 20.9 km/h 84 % 0 mm
19:09 10.9 °C 8.3 °C 1009.4 hPa WSW 31.5 km/h 18.5 km/h 84 % 0 mm
19:14 10.9 °C 8.3 °C 1009.4 hPa SW 33.8 km/h 22 km/h 84 % 0 mm
19:19 10.9 °C 8.3 °C 1009.4 hPa SW 33.3 km/h 22.2 km/h 84 % 0 mm
19:24 10.9 °C 8.3 °C 1009.7 hPa SW 24.1 km/h 20 km/h 84 % 0 mm
19:29 10.9 °C 8.1 °C 1009.4 hPa SW 29.6 km/h 20.3 km/h 83 % 0 mm
19:34 10.9 °C 7.9 °C 1009.4 hPa SW 27.8 km/h 16.9 km/h 82 % 0 mm
19:39 10.9 °C 7.8 °C 1009.4 hPa WSW 24.1 km/h 18 km/h 81 % 0 mm
19:44 10.9 °C 7.8 °C 1009.4 hPa SW 24.1 km/h 19.3 km/h 81 % 0 mm
19:49 10.9 °C 7.8 °C 1009.4 hPa SW 31.5 km/h 21.6 km/h 81 % 0 mm
19:54 10.9 °C 7.8 °C 1009.7 hPa SW 24.1 km/h 15.1 km/h 81 % 0 mm
19:59 10.8 °C 7.7 °C 1009.7 hPa SW 29.6 km/h 21.9 km/h 81 % 0 mm
20:04 10.7 °C 7.8 °C 1009.7 hPa WSW 24.1 km/h 15.6 km/h 82 % 0 mm
20:09 10.7 °C 7.7 °C 1009.7 hPa WSW 27.8 km/h 14.2 km/h 82 % 0 mm
20:14 10.6 °C 7.8 °C 1009.7 hPa SW 24.1 km/h 16.6 km/h 83 % 0 mm
20:19 10.6 °C 7.8 °C 1009.7 hPa SW 29.6 km/h 23.2 km/h 83 % 0 mm
20:24 10.5 °C 7.9 °C 1009.7 hPa SW 33.3 km/h 21.1 km/h 84 % 0 mm
20:29 10.4 °C 7.8 °C 1009.7 hPa North 33.3 km/h 16.1 km/h 84 % 0 mm
20:34 10.4 °C 8 °C 1009.7 hPa WSW 31.5 km/h 26.9 km/h 85 % 0 mm
20:39 10.3 °C 7.9 °C 1009.7 hPa North 31.5 km/h 25.3 km/h 85 % 0 mm
20:44 10.3 °C 7.9 °C 1009.7 hPa SW 22.2 km/h 13.8 km/h 85 % 0 mm
20:49 10.3 °C 7.9 °C 1009.7 hPa North 27.4 km/h 16.7 km/h 85 % 0 mm
20:54 10.3 °C 7.9 °C 1009.7 hPa SW 18.5 km/h 16.7 km/h 85 % 0 mm
20:59 10.3 °C 8.1 °C 1009.7 hPa WSW 22.2 km/h 15 km/h 86 % 0 mm
21:04 10.2 °C 8 °C 1009.7 hPa SW 29.6 km/h 20.4 km/h 86 % 0 mm
21:09 10.2 °C 8 °C 1009.7 hPa SSW 25.9 km/h 21.2 km/h 86 % 0 mm
21:14 10.3 °C 8.1 °C 1010 hPa SW 22.2 km/h 21.9 km/h 86 % 0 mm
21:19 10.3 °C 8.2 °C 1010 hPa SW 22.2 km/h 16.1 km/h 87 % 0 mm
21:24 10.2 °C 8.1 °C 1010 hPa SSW 25.7 km/h 15.8 km/h 87 % 0 mm
21:29 10.1 °C 8.2 °C 1010 hPa North 24.1 km/h 22.5 km/h 88 % 0 mm
21:34 10 °C 8.3 °C 1010 hPa SW 24.1 km/h 11.1 km/h 89 % 0 mm
21:39 10 °C 8.3 °C 1010 hPa SW 25.9 km/h 20.3 km/h 89 % 0 mm
21:44 9.9 °C 8.3 °C 1010 hPa SW 27.8 km/h 16.9 km/h 90 % 0 mm
21:49 9.9 °C 8.3 °C 1010.4 hPa North 16.7 km/h 10.8 km/h 90 % 0 mm
21:54 9.8 °C 8.4 °C 1010.4 hPa SW 20.4 km/h 12.2 km/h 91 % 0 mm
21:59 9.8 °C 8.4 °C 1010.4 hPa North 25.9 km/h 9.5 km/h 91 % 0 mm
22:04 9.8 °C 8.6 °C 1010.4 hPa North 24.1 km/h 16.3 km/h 92 % 0 mm
22:09 9.8 °C 8.6 °C 1010.4 hPa SW 18.5 km/h 15.3 km/h 92 % 0 mm
22:14 9.8 °C 8.6 °C 1010.4 hPa SW 22.2 km/h 15.8 km/h 92 % 0 mm
22:19 9.8 °C 8.6 °C 1010.4 hPa SW 31.5 km/h 21.6 km/h 92 % 0 mm
22:24 9.8 °C 8.6 °C 1010.4 hPa SW 18.5 km/h 19.3 km/h 92 % 0 mm
22:29 9.8 °C 8.6 °C 1010.4 hPa SW 22.2 km/h 16.9 km/h 92 % 0 mm
22:34 9.8 °C 8.8 °C 1010.4 hPa SW 18.5 km/h 9 km/h 93 % 0 mm
22:39 9.8 °C 8.6 °C 1010.4 hPa SW 27.8 km/h 20.1 km/h 92 % 0 mm
22:44 9.8 °C 8.7 °C 1010.4 hPa SSW 25.9 km/h 14.3 km/h 93 % 0 mm
22:49 9.8 °C 8.7 °C 1010.4 hPa SW 24.1 km/h 22 km/h 93 % 0 mm
22:54 9.8 °C 8.7 °C 1010.4 hPa North 31.5 km/h 20.6 km/h 93 % 0 mm
22:59 9.8 °C 8.7 °C 1010.4 hPa WSW 18.5 km/h 13.2 km/h 93 % 0 mm
23:04 9.8 °C 8.7 °C 1010 hPa SSW 20.4 km/h 17.5 km/h 93 % 0 mm
23:09 9.8 °C 8.7 °C 1010 hPa SSW 24.1 km/h 18.5 km/h 93 % 0 mm
23:14 9.7 °C 8.7 °C 1010.4 hPa SW 24.1 km/h 18 km/h 93 % 0 mm
23:19 9.7 °C 8.7 °C 1010 hPa SW 31.5 km/h 19.3 km/h 93 % 0 mm
23:24 9.7 °C 8.7 °C 1010 hPa SW 29.6 km/h 22.2 km/h 93 % 0 mm
23:29 9.7 °C 8.7 °C 1010 hPa SW 31.5 km/h 21.9 km/h 93 % 0 mm
23:34 9.7 °C 8.7 °C 1010.4 hPa WSW 32.2 km/h 26.9 km/h 93 % 0 mm
23:39 9.7 °C 8.7 °C 1010.4 hPa SSW 27.8 km/h 16.1 km/h 93 % 0 mm
23:44 9.8 °C 8.7 °C 1010.4 hPa North 25.7 km/h 18.8 km/h 93 % 0 mm
23:49 9.7 °C 8.7 °C 1010.4 hPa SW 31.5 km/h 17.4 km/h 93 % 0 mm
23:54 9.7 °C 8.7 °C 1010 hPa SSW 31.5 km/h 18.3 km/h 93 % 0 mm
23:59 9.8 °C 8.7 °C 1010.4 hPa SSW 22.5 km/h 15.6 km/h 93 % 0 mm
Ararat Weather
Compliments of Weather Underground - 2.25 mb
Click here to send mail.


ABOUT

Live weather data from Ararat, Victoria, Australia, 3377
Data uploaded from Cumulus every 5 minutes to Weather Underground.
This site then downloads the raw data for formatting and display.
Metric and imperial data can be displayed. Graphs and historical data available.
Includes Sun and Moon times and rain image live from BOM.

Check out Ararat Weather on Facebook, Twitter and Google +

Help support ongoing costs by checking out the ads





Follow @AraratWeather